Location: Cortada Guamacho
(10.5667°N, 67.0833°W)
Time: 13:44:41
(UTC+00:00)

BREEZE M DEB (TANK) - Pass Details

Date: 08 December 2021
Orbit: 292 x 11821 km, 49.5° (Epoch: 19 January)

Event Time Altitude Azimuth Distance (km) Brightness Sun altitude
Rises 23:34:45 0° 323° (NW) 5,543 7.6 -21.1°
Reaches altitude 10° 23:39:56 10° 326° (NNW) 3,236 6.4 -22.3°
Enters shadow 23:45:06 43° 353° (N) 894 3.2 -23.4°
